Skip Page Navigation
NASA JPL Caltech
NASA Logo - Jet Propulsion Laboratory + View the NASA Portal
+ Center for Near-Earth Object Studies
JPL Home Earth Solar System Stars & Galaxies Technology
JPL Solar System Dynamics
BODIES ORBITS EPHEMERIDES TOOLS PHYSICAL DATA DISCOVERY FAQ SITE MAP
IMPORTANT: The SSD Announcement email list is now available. Major changes are coming in the near future, including possible hostname and/or URL changes. To be notified of such changes, subscribe to this email list.

Please visit this page for more details.


JPL Small-Body Database Browser
Search: [ help ]  
35949 (1999 KQ10)
Classification: Main-belt Asteroid          SPK-ID: 2035949
Ephemeris | Orbit Diagram | Orbital Elements | Mission Design | Physical Parameters | Discovery Circumstances | Close-Approach Data ]

[ show orbit diagram ]
Orbital Elements at Epoch 2459000.5 (2020-May-31.0) TDB
Reference: JPL 32 (heliocentric ecliptic J2000)
 Element Value Uncertainty (1-sigma)   Units 
e .1831657926353771 2.9126e-08  
a 2.424013494782395 9.8875e-09 au
q 1.980017141651727 6.9736e-08 au
i 1.732038831868078 4.0779e-06 deg
node 241.3532709029571 0.00010866 deg
peri 55.55216633358339 0.00010942 deg
M 164.2617597580602 1.5177e-05 deg
tp 2458371.522735793326
(2018-Sep-10.02273579)
5.6183e-05 TDB
period 1378.481610375491
3.77
8.4342e-06
2.309e-08
d
yr
n .2611569115542557 1.5979e-09 deg/d
Q 2.868009847913063 1.1699e-08 au
  Orbit Determination Parameters
   # obs. used (total)      1668  
   data-arc span      10457 days (28.63 yr)  
   first obs. used      1991-05-19  
   last obs. used      2020-01-04  
   planetary ephem.      DE431  
   SB-pert. ephem.      SB431-N16  
   condition code      0  
   norm. resid. RMS      .51394  
   source      ORB  
   producer      Otto Matic  
   solution date      2020-Jan-29 05:12:51  

Additional Information
 Earth MOID = .964764 au 
 Jupiter MOID = 2.33536 au 
 T_jup = 3.488 
[ show covariance matrix ]

Ephemeris | Orbit Diagram | Orbital Elements | Mission Design | Physical Parameters | Discovery Circumstances | Close-Approach Data ]

Physical Parameter Table
Parameter Symbol Value Units Sigma Reference Notes
absolute magnitude H 14.3   n/a MPO502417  

35949 (1999 KQ10)          Discovered 1999-May-18 by LINEAR at Socorro
Reference: 20020227/Numbers.arcLast Updated: 2004-04-19

[ show close-approach data ]
Alternate Designations
 1999 KQ10 = 2000 US48 
Ephemeris | Orbit Diagram | Orbital Elements | Mission Design | Physical Parameters | Discovery Circumstances | Close-Approach Data ]
ABOUT SSD CREDITS/AWARDS PRIVACY/COPYRIGHT GLOSSARY LINKS
FirstGov 2020-Feb-20 11:24 UT
(server date/time)  
NASA Home Page
Site Manager:   Ryan S. Park
Webmaster  Alan B. Chamberlin